TimeCDT,TemperatureF,Dew PointF,Humidity,Sea Level PressureIn,VisibilityMPH,Wind Direction,Wind SpeedMPH,Gust SpeedMPH,PrecipitationIn,Events,Conditions,WindDirDegrees,DateUTC
12:53 AM,60.1,57.0,90,30.17,10.0,NNE,4.6,-,N/A,,Clear,30,2013-05-24 05:53:00
1:53 AM,60.1,55.9,86,30.17,10.0,Variable,3.5,-,N/A,,Clear,0,2013-05-24 06:53:00
2:53 AM,59.0,55.9,90,30.17,10.0,NE,5.8,-,N/A,,Clear,40,2013-05-24 07:53:00
3:53 AM,57.9,55.9,93,30.18,10.0,NE,6.9,-,N/A,,Scattered Clouds,50,2013-05-24 08:53:00
4:53 AM,57.9,55.0,90,30.20,10.0,ENE,4.6,-,N/A,,Scattered Clouds,60,2013-05-24 09:53:00
5:53 AM,57.0,55.0,93,30.20,10.0,ENE,3.5,-,N/A,,Clear,70,2013-05-24 10:53:00
6:53 AM,57.9,55.0,90,30.21,10.0,East,5.8,-,N/A,,Clear,80,2013-05-24 11:53:00
7:53 AM,60.1,55.9,86,30.22,10.0,East,8.1,-,N/A,,Mostly Cloudy,100,2013-05-24 12:53:00
8:53 AM,64.0,57.0,78,30.22,10.0,East,10.4,-,N/A,,Partly Cloudy,100,2013-05-24 13:53:00
9:53 AM,66.9,57.9,73,30.22,10.0,ESE,5.8,-,N/A,,Clear,110,2013-05-24 14:53:00
10:53 AM,71.1,60.1,68,30.22,10.0,ESE,9.2,-,N/A,,Clear,120,2013-05-24 15:53:00
11:53 AM,73.0,62.1,68,30.22,10.0,SE,8.1,-,N/A,,Clear,130,2013-05-24 16:53:00
12:53 PM,75.9,63.0,64,30.20,10.0,ESE,10.4,-,N/A,,Clear,110,2013-05-24 17:53:00
1:53 PM,78.1,64.0,62,30.19,10.0,ESE,10.4,-,N/A,,Partly Cloudy,110,2013-05-24 18:53:00
2:53 PM,78.1,64.9,64,30.18,10.0,East,8.1,-,N/A,,Overcast,100,2013-05-24 19:53:00
3:53 PM,79.0,66.0,64,30.15,10.0,SSE,9.2,-,N/A,,Mostly Cloudy,160,2013-05-24 20:53:00
4:53 PM,79.0,66.9,66,30.13,10.0,ESE,8.1,-,N/A,,Mostly Cloudy,110,2013-05-24 21:53:00
5:53 PM,79.0,66.9,66,30.11,10.0,SE,11.5,-,N/A,,Mostly Cloudy,130,2013-05-24 22:53:00
6:53 PM,78.1,66.9,68,30.10,10.0,Variable,6.9,-,N/A,,Mostly Cloudy,0,2013-05-24 23:53:00
7:53 PM,75.9,66.0,71,30.09,10.0,SSE,6.9,-,N/A,,Clear,150,2013-05-25 00:53:00
8:53 PM,73.0,66.0,79,30.10,10.0,SSE,4.6,-,N/A,,Clear,160,2013-05-25 01:53:00
9:53 PM,72.0,64.9,78,30.11,10.0,SSE,4.6,-,N/A,,Clear,150,2013-05-25 02:53:00
10:53 PM,70.0,64.0,81,30.12,10.0,SE,5.8,-,N/A,,Clear,140,2013-05-25 03:53:00
11:53 PM,69.1,62.1,78,30.12,10.0,SSE,6.9,-,N/A,,Clear,150,2013-05-25 04:53:00